Location: Newark
(34.9500°N, 139.9667°E)
Time: 17:34:31
(UTC+00:00)

Vanguard 1 Rocket - Pass Details

Date: 13 December 2019
Orbit: 650 x 4226 km, 34.3° (Epoch: 23 January)

Event Time Altitude Azimuth Distance (km) Brightness Sun altitude
Rises 15:56:20 0° 283° (WNW) 5,607 - -68.6°
Reaches altitude 10° 16:00:54 10° 279° (W) 4,021 - -67.8°
Maximum altitude 16:09:48 48° 209° (SSW) 1,362 - -66.1°
Drops below altitude 10° 16:14:58 10° 134° (SE) 2,366 - -65.1°
Sets 16:17:01 0° 128° (SE) 3,133 - -64.7°
